TimeEST,TemperatureF,Dew PointF,Humidity,Sea Level PressureIn,VisibilityMPH,Wind Direction,Wind SpeedMPH,Gust SpeedMPH,PrecipitationIn,Events,Conditions,WindDirDegrees,DateUTC
12:53 AM,55.0,37.0,51,30.04,10.0,NW,8.1,-,N/A,,Overcast,320,2013-03-02 05:53:00
1:53 AM,54.0,37.9,55,30.04,10.0,NNW,6.9,-,N/A,,Overcast,330,2013-03-02 06:53:00
2:53 AM,53.1,39.0,59,30.04,10.0,NNE,6.9,-,N/A,,Overcast,20,2013-03-02 07:53:00
3:53 AM,51.1,35.1,54,30.04,10.0,NE,6.9,-,N/A,,Overcast,40,2013-03-02 08:53:00
4:53 AM,51.1,36.0,56,30.03,9.0,ENE,3.5,-,N/A,,Overcast,70,2013-03-02 09:53:00
5:53 AM,48.9,34.0,56,30.02,10.0,NE,4.6,-,N/A,,Mostly Cloudy,40,2013-03-02 10:53:00
6:53 AM,48.9,33.1,54,30.03,10.0,ENE,3.5,-,N/A,,Scattered Clouds,70,2013-03-02 11:53:00
7:53 AM,50.0,30.9,48,30.06,10.0,NNE,6.9,-,N/A,,Mostly Cloudy,30,2013-03-02 12:53:00
8:53 AM,50.0,34.0,54,30.07,10.0,NNE,5.8,-,0.00,,Overcast,20,2013-03-02 13:53:00
9:53 AM,52.0,33.1,49,30.09,10.0,NNW,15.0,21.9,N/A,,Overcast,340,2013-03-02 14:53:00
10:53 AM,52.0,37.0,57,30.10,10.0,NNW,10.4,21.9,N/A,,Overcast,340,2013-03-02 15:53:00
11:53 AM,57.9,36.0,44,30.09,10.0,NW,17.3,24.2,N/A,,Mostly Cloudy,310,2013-03-02 16:53:00
12:53 PM,57.9,37.0,46,30.07,10.0,NW,17.3,26.5,N/A,,Mostly Cloudy,310,2013-03-02 17:53:00
1:53 PM,57.9,36.0,44,30.04,10.0,NW,17.3,24.2,N/A,,Mostly Cloudy,310,2013-03-02 18:53:00
2:53 PM,57.9,35.1,42,30.03,10.0,NW,13.8,31.1,N/A,,Mostly Cloudy,310,2013-03-02 19:53:00
3:53 PM,57.9,35.1,42,30.01,10.0,NW,17.3,31.1,N/A,,Mostly Cloudy,310,2013-03-02 20:53:00
4:53 PM,55.9,37.0,49,30.01,10.0,NNW,13.8,-,N/A,,Mostly Cloudy,330,2013-03-02 21:53:00
5:53 PM,54.0,36.0,51,30.03,10.0,NW,9.2,-,N/A,,Mostly Cloudy,310,2013-03-02 22:53:00
6:53 PM,53.1,36.0,52,30.03,10.0,NW,9.2,18.4,N/A,,Overcast,320,2013-03-02 23:53:00
7:53 PM,53.6,35.6,51,30.04,10.0,NW,5.8,-,N/A,,Mostly Cloudy,320,2013-03-03 00:53:00
8:53 PM,53.1,34.0,48,30.04,10.0,WNW,11.5,-,N/A,,Mostly Cloudy,300,2013-03-03 01:53:00
9:53 PM,53.1,34.0,48,30.03,10.0,NW,10.4,-,N/A,,Scattered Clouds,310,2013-03-03 02:53:00
10:53 PM,52.0,36.0,54,30.04,10.0,WNW,6.9,-,N/A,,Scattered Clouds,300,2013-03-03 03:53:00
11:53 PM,51.1,36.0,56,30.03,10.0,NW,9.2,-,N/A,,Mostly Cloudy,320,2013-03-03 04:53:00